Location: Arezzo
(43.4170°N, 11.8830°E)
Time: 14:52:37
(UTC+02:00)

ISS - Visible Passes

Search period start: 14 May 2025 00:00
Search period end: 24 May 2025 00:00
Orbit: 416 x 419 km, 51.6° (Epoch: 14 May)

Date Brightness Start Highest point End Pass type
(mag) Time Alt. Az. Time Alt. Az. Time Alt. Az.
14 May -1.9 21:25:53 10° W 21:28:59 33° NNW 21:32:04 10° NE visible
14 May -1.1 23:03:55 10° NW 23:06:27 19° N 23:09:00 10° NE visible
15 May -1.2 00:40:54 10° NW 00:42:22 20° NNW 00:42:22 20° NNW visible
15 May -1.1 22:15:42 10° WNW 22:18:18 20° N 22:20:54 10° NE visible
15 May -1.7 23:53:00 10° NW 23:55:51 25° NNE 23:55:59 25° NNE visible
16 May -1.3 21:27:24 10° WNW 21:30:08 22° N 21:32:52 10° NE visible
16 May -1.4 23:05:01 10° NW 23:07:42 22° N 23:09:35 14° NE visible
17 May -1.0 00:41:39 10° NW 00:42:30 17° NW 00:42:30 17° NW visible
17 May -1.2 22:16:57 10° NW 22:19:31 20° N 22:22:06 10° NE visible
17 May -2.1 23:53:43 10° NW 23:56:06 34° NNW 23:56:06 34° NNW visible
18 May -1.2 21:28:46 10° NW 21:31:19 20° N 21:33:51 10° NE visible
18 May -2.1 23:05:47 10° NW 23:08:49 30° NNE 23:09:41 26° NE visible
19 May -0.7 00:42:27 10° WNW 00:42:36 11° WNW 00:42:36 11° WNW visible
19 May -1.7 22:17:48 10° NW 22:20:38 25° NNE 22:23:17 11° ENE visible
19 May -2.0 23:54:23 10° WNW 23:56:11 29° WNW 23:56:11 29° WNW visible
20 May -1.5 21:29:45 10° NW 21:32:25 21° N 21:35:06 10° ENE visible
20 May -3.4 23:06:22 10° NW 23:09:42 58° NNE 23:09:47 58° NE visible
21 May -2.7 22:18:23 10° NW 22:21:35 40° NNE 22:23:23 21° E visible
21 May -1.3 23:55:15 10° WNW 23:56:18 17° W 23:56:18 17° W visible
22 May -2.2 21:30:23 10° NW 21:33:24 30° NNE 21:36:25 10° E visible
22 May -3.3 23:07:01 10° WNW 23:09:55 51° WSW 23:09:55 51° WSW visible
23 May -3.8 22:18:54 10° WNW 22:22:16 88° NNE 22:23:33 35° ESE visible
